FW5284 Weather Reports


Display with metric or nautical units.
time (UTC)temp
F
wind
direction
speed
MPH
gust
MPH
rain 1hr
in
rain 24hr
in
rain mn
in
humidity
%
barometer
mb
20260831103514 54 44 0.0 0.0 0.00 0.00 0.00 91 1020.6
20260831103023 54 44 0.0 0.0 0.00 0.00 0.00 91 1020.5
20260831102513 54 44 0.0 0.0 0.00 0.00 0.00 92 1020.5
20260831102013 54 44 0.0 0.0 0.00 0.00 0.00 92 1020.6
20260831101530 54 44 0.0 0.0 0.00 0.00 0.00 92 1020.5
20260831101016 54 44 0.0 0.0 0.00 0.00 0.00 91 1020.4
20260831100514 54 44 0.0 0.0 0.00 0.00 0.00 91 1020.5
20260831100037 54 44 0.0 0.0 0.00 0.00 0.00 91 1020.5
20260831095521 54 44 0.0 0.0 0.00 0.00 0.00 91 1020.4
20260831095006 54 44 0.0 0.0 0.00 0.00 0.00 91 1020.2
20260831094516 54 44 0.0 0.0 0.00 0.00 0.00 91 1020.2
20260831094010 54 44 0.0 0.0 0.00 0.00 0.00 90 1020.2
20260831093512 55 44 0.0 0.0 0.00 0.00 0.00 90 1020.2
20260831093025 55 44 0.0 0.0 0.00 0.00 0.00 90 1020.1
20260831092512 55 44 0.0 0.0 0.00 0.00 0.00 90 1020.0
20260831092015 55 44 0.0 0.0 0.00 0.00 0.00 90 1020.0
20260831091527 55 44 0.0 0.0 0.00 0.00 0.00 90 1020.0
20260831091014 55 44 0.0 0.0 0.00 0.00 0.00 90 1020.0
20260831090513 56 44 0.0 0.0 0.00 0.00 0.00 90 1020.0
20260831090031 56 44 0.0 0.0 0.00 0.00 0.00 90 1020.0
20260831085517 56 44 0.0 0.0 0.00 0.00 0.00 90 1019.9
20260831085006 56 44 0.0 0.0 0.00 0.00 0.00 90 1019.9
20260831084509 56 44 0.0 0.0 0.00 0.00 0.00 90 1019.8
20260831084007 56 44 0.0 0.0 0.00 0.00 0.00 90 1019.7
20260831083507 56 44 0.0 0.0 0.00 0.00 0.00 89 1019.7
20260831083016 57 44 0.0 0.0 0.00 0.00 0.00 90 1019.7
20260831082510 57 44 0.0 0.0 0.00 0.00 0.00 90 1019.7
20260831082012 57 44 0.0 0.0 0.00 0.00 0.00 90 1019.6
20260831081505 57 44 0.0 0.0 0.00 0.00 0.00 90 1019.6
20260831081008 57 44 0.0 0.0 0.00 0.00 0.00 90 1019.6
20260831080502 57 44 0.0 0.0 0.00 0.00 0.00 90 1019.6
20260831080004 57 44 0.0 0.0 0.00 0.00 0.00 90 1019.6
20260831075508 57 44 0.0 0.0 0.00 0.00 0.00 90 1019.5
20260831075004 57 44 0.0 0.0 0.00 0.00 0.00 90 1019.4
20260831074508 57 44 0.0 0.0 0.00 0.00 0.00 90 1019.3
20260831074006 58 44 0.0 0.0 0.00 0.00 0.00 89 1019.3
20260831073504 58 44 0.0 0.0 0.00 0.00 0.00 89 1019.1
20260831073020 58 44 0.0 0.0 0.00 0.00 0.00 89 1019.1
20260831072510 58 44 0.0 0.0 0.00 0.00 0.00 90 1019.1
20260831072008 58 44 0.0 0.0 0.00 0.00 0.00 89 1019.1
20260831071520 58 44 0.0 0.0 0.00 0.00 0.00 89 1019.1
20260831071010 58 44 0.0 0.0 0.00 0.00 0.00 89 1019.1
20260831070512 59 44 0.0 0.0 0.00 0.00 0.00 89 1019.1
20260831070024 59 44 0.0 0.0 0.00 0.00 0.00 89 1018.9
20260831065503 59 44 0.0 0.0 0.00 0.00 0.00 89 1018.9
20260831065003 59 44 0.0 0.0 0.00 0.00 0.00 89 1018.9
20260831064511 59 44 0.0 0.0 0.00 0.00 0.00 89 1018.9
20260831064003 59 44 0.0 0.0 0.00 0.00 0.00 88 1018.9
20260831063503 59 44 0.0 0.0 0.00 0.00 0.00 88 1018.8
20260831063021 60 44 0.0 0.0 0.00 0.00 0.00 88 1018.7
20260831062510 60 47 0.0 0.0 0.00 0.00 0.00 88 1018.7
20260831062008 60 47 0.0 0.0 0.00 0.00 0.00 88 1018.7
20260831061516 60 47 0.0 0.0 0.00 0.00 0.00 88 1018.8
20260831061014 61 47 0.0 0.0 0.00 0.00 0.00 88 1018.8
20260831060510 61 47 0.0 0.0 0.00 0.00 0.00 88 1018.8
20260831060023 61 47 0.0 0.0 0.00 0.00 0.00 88 1018.7
20260831055512 61 129 0.0 0.0 0.00 0.00 0.00 88 1018.7
20260831055012 61 172 0.0 0.0 0.00 0.00 0.00 88 1018.8
20260831054528 61 172 0.0 0.0 0.00 0.00 0.00 87 1018.8
20260831054003 62 172 0.0 0.0 0.00 0.00 0.00 87 1018.8
20260831053504 62 172 0.0 0.0 0.00 0.00 0.00 87 1018.9
20260831053008 62 172 0.0 0.0 0.00 0.00 0.00 86 1018.8
20260831052505 62 162 0.0 0.0 0.00 0.00 0.00 86 1018.8
20260831052005 63 162 0.0 0.0 0.00 0.00 0.00 85 1018.8
20260831051511 63 162 0.0 0.0 0.00 0.00 0.00 85 1018.7
20260831051012 63 162 0.0 0.0 0.00 0.00 0.00 85 1018.5
20260831050508 63 162 0.0 0.0 0.00 0.00 0.00 85 1018.5
20260831050023 63 162 0.0 0.0 0.00 0.00 0.00 85 1018.5
20260831045512 64 163 0.0 0.0 0.00 0.00 0.00 85 1018.4
20260831045010 64 233 0.0 0.0 0.00 0.00 0.00 86 1018.5
20260831044526 64 298 0.0 0.0 0.00 0.00 0.00 86 1018.4
20260831044013 64 298 0.0 0.0 0.00 0.00 0.00 86 1018.3
20260831043513 64 298 0.0 0.0 0.00 0.00 0.00 86 1018.3
20260831043037 64 298 0.0 0.0 0.00 0.00 0.00 86 1018.3
20260831042516 65 298 0.0 1.0 0.00 0.00 0.00 86 1018.3
20260831042004 65 298 0.0 1.0 0.00 0.00 0.00 86 1018.4
20260831041511 65 298 0.0 0.0 0.00 0.00 0.00 87 1018.4
20260831041007 65 298 0.0 0.0 0.00 0.00 0.00 87 1018.4
20260831040507 65 298 0.0 0.0 0.00 0.00 0.00 87 1018.4
20260831040016 65 298 0.0 0.0 0.00 0.00 0.00 87 1018.4
20260831035510 65 298 0.0 2.0 0.00 0.00 0.00 87 1018.3
20260831035008 65 298 0.0 2.0 0.00 0.00 0.00 87 1018.4
20260831034524 65 291 0.0 0.0 0.00 0.00 0.00 86 1018.4
20260831034014 66 291 0.0 2.0 0.00 0.00 0.00 86 1018.3
20260831033518 66 291 0.0 2.0 0.00 0.00 0.00 86 1018.3
20260831033026 66 291 0.0 2.0 0.00 0.00 0.00 86 1018.2
20260831032518 66 291 0.0 2.0 0.00 0.00 0.00 86 1018.3
20260831032016 66 291 0.0 2.0 0.00 0.00 0.00 86 1018.4
20260831031534 66 291 0.0 2.0 0.00 0.00 0.00 85 1018.4
20260831031017 66 291 0.0 0.0 0.00 0.00 0.00 85 1018.5
20260831030503 67 291 0.0 0.0 0.00 0.00 0.00 85 1018.4
20260831030012 67 291 0.0 0.0 0.00 0.00 0.00 84 1018.3
20260831025508 67 291 0.0 2.0 0.00 0.00 0.00 84 1018.3
20260831025010 67 291 0.0 2.0 0.00 0.00 0.00 84 1018.2
20260831024523 68 291 0.0 0.0 0.00 0.00 0.00 83 1018.3
20260831024010 68 291 0.0 0.0 0.00 0.00 0.00 83 1018.4
20260831023511 68 291 0.0 0.0 0.00 0.00 0.00 82 1018.3
20260831023024 68 291 0.0 0.0 0.00 0.00 0.00 82 1018.3
20260831022512 68 291 0.0 1.0 0.00 0.00 0.00 82 1018.3
20260831022011 69 291 0.0 1.0 0.00 0.00 0.00 81 1018.3
20260831021531 69 291 0.0 1.0 0.00 0.00 0.00 81 1018.2
20260831021014 69 291 0.0 2.0 0.00 0.00 0.00 81 1018.2
20260831020516 69 291 0.0 2.0 0.00 0.00 0.00 80 1018.1
20260831020033 70 291 0.0 2.0 0.00 0.00 0.00 80 1018.1
20260831015519 70 291 0.0 0.0 0.00 0.00 0.00 79 1018.0
20260831015008 70 291 0.0 0.0 0.00 0.00 0.00 79 1018.0
20260831014514 70 291 0.0 3.0 0.00 0.00 0.00 78 1017.9
20260831014008 71 291 0.0 3.0 0.00 0.00 0.00 77 1018.0
20260831013508 71 258 1.0 3.0 0.00 0.00 0.00 75 1018.0
20260831013037 71 281 1.0 2.0 0.00 0.00 0.00 74 1018.0
20260831012511 71 274 0.0 2.0 0.00 0.00 0.00 74 1017.8
20260831012011 71 274 0.0 2.0 0.00 0.00 0.00 73 1017.6
20260831011524 71 274 0.0 2.0 0.00 0.00 0.00 74 1017.5
20260831011014 72 274 0.0 2.0 0.00 0.00 0.00 73 1017.4
20260831010515 72 268 0.0 2.0 0.00 0.00 0.00 72 1017.3
20260831010031 72 276 0.0 2.0 0.00 0.00 0.00 72 1017.2
20260831005516 72 279 0.0 4.0 0.00 0.00 0.00 72 1017.2
20260831005017 72 277 0.0 4.0 0.00 0.00 0.00 71 1017.1
20260831004533 72 284 2.0 5.0 0.00 0.00 0.00 71 1016.9
20260831004018 72 290 1.0 7.0 0.00 0.00 0.00 71 1016.8
20260831003512 72 328 2.0 7.0 0.00 0.00 0.00 71 1016.9
20260831003023 72 317 3.0 7.0 0.00 0.00 0.00 71 1016.8
20260831002511 72 282 2.0 7.0 0.00 0.00 0.00 71 1016.8
20260831002013 72 304 2.0 5.0 0.00 0.00 0.00 71 1016.6
20260831001528 72 295 2.0 5.0 0.00 0.00 0.00 71 1016.5
20260831001013 72 295 2.0 6.0 0.00 0.00 0.00 71 1016.4
20260831000512 72 316 2.0 7.0 0.00 0.00 0.00 70 1016.3
20260831000029 72 281 3.0 7.0 0.00 0.00 0.00 70 1016.3
20260830235515 72 283 3.0 5.0 0.00 0.00 0.00 70 1016.3
20260830235003 72 293 2.0 5.0 0.00 0.00 0.00 70 1016.2
20260830234507 72 278 2.0 7.0 0.00 0.00 0.00 69 1016.1
20260830234005 72 287 2.0 7.0 0.00 0.00 0.00 69 1016.1
20260830233508 72 269 3.0 6.0 0.00 0.00 0.00 69 1016.0
20260830233016 72 295 2.0 4.0 0.00 0.00 0.00 69 1016.0
20260830232507 73 293 2.0 6.0 0.00 0.00 0.00 68 1016.1
20260830232010 73 293 2.0 6.0 0.00 0.00 0.00 68 1016.2
20260830231522 73 289 2.0 4.0 0.00 0.00 0.00 68 1016.2
20260830231012 73 286 2.0 4.0 0.00 0.00 0.00 68 1016.1
20260830230511 73 285 2.0 4.0 0.00 0.00 0.00 68 1016.0
20260830230004 73 285 2.0 4.0 0.00 0.00 0.00 67 1016.1
20260830225503 73 286 1.0 4.0 0.00 0.00 0.00 67 1016.1
20260830225005 73 285 2.0 4.0 0.00 0.00 0.00 67 1016.3
20260830224514 74 292 2.0 4.0 0.00 0.00 0.00 67 1016.3
20260830224004 74 287 3.0 4.0 0.00 0.00 0.00 67 1016.2
20260830223507 74 288 2.0 4.0 0.00 0.00 0.00 66 1016.4
20260830223010 74 277 2.0 3.0 0.00 0.00 0.00 66 1016.3
20260830222506 74 285 2.0 5.0 0.00 0.00 0.00 66 1016.4
20260830222006 74 289 2.0 5.0 0.00 0.00 0.00 65 1016.4
20260830221518 75 295 2.0 4.0 0.00 0.00 0.00 66 1016.6
20260830221010 75 286 1.0 4.0 0.00 0.00 0.00 66 1016.6
20260830220512 75 290 1.0 6.0 0.00 0.00 0.00 65 1016.4
20260830220026 75 294 2.0 6.0 0.00 0.00 0.00 65 1016.4
20260830215512 76 284 2.0 4.0 0.00 0.00 0.00 67 1016.5
20260830215014 76 288 1.0 3.0 0.00 0.00 0.00 67 1016.5
20260830214515 76 288 2.0 3.0 0.00 0.00 0.00 66 1016.5
20260830214003 76 267 1.0 3.0 0.00 0.00 0.00 67 1016.5
20260830213506 76 288 1.0 3.0 0.00 0.00 0.00 66 1016.5
20260830213007 76 287 1.0 3.0 0.00 0.00 0.00 66 1016.6
20260830212506 76 288 0.0 2.0 0.00 0.00 0.00 66 1016.6
20260830212006 76 288 0.0 3.0 0.00 0.00 0.00 65 1016.6
20260830211515 76 288 1.0 3.0 0.00 0.00 0.00 65 1016.7
20260830211006 76 289 2.0 3.0 0.00 0.00 0.00 64 1016.8
20260830210508 76 266 0.0 3.0 0.00 0.00 0.00 64 1016.7
20260830210022 77 257 1.0 3.0 0.00 0.00 0.00 62 1016.8
20260830205515 77 252 0.0 2.0 0.00 0.00 0.00 63 1016.8
20260830205010 77 257 1.0 3.0 0.00 0.00 0.00 61 1016.9
20260830204526 77 278 1.0 3.0 0.00 0.00 0.00 62 1016.8
20260830204012 77 266 0.0 3.0 0.00 0.00 0.00 61 1016.9
20260830203514 77 269 0.0 2.0 0.00 0.00 0.00 60 1016.9
20260830203019 77 273 0.0 5.0 0.00 0.00 0.00 59 1016.9
20260830202504 77 285 0.0 5.0 0.00 0.00 0.00 58 1017.0
20260830202006 77 273 2.0 5.0 0.00 0.00 0.00 59 1017.0
20260830201510 77 300 1.0 4.0 0.00 0.00 0.00 58 1017.1
20260830201012 77 277 1.0 4.0 0.00 0.00 0.00 59 1017.1
20260830200505 77 278 0.0 6.0 0.00 0.00 0.00 61 1017.1
20260830200017 77 288 1.0 6.0 0.00 0.00 0.00 60 1017.3
20260830195509 77 295 1.0 6.0 0.00 0.00 0.00 58 1017.3
20260830195012 77 297 1.0 4.0 0.00 0.00 0.00 60 1017.4
20260830194526 77 292 0.0 4.0 0.00 0.00 0.00 60 1017.4
20260830194012 76 290 0.0 3.0 0.00 0.00 0.00 62 1017.5
20260830193515 76 295 0.0 2.0 0.00 0.00 0.00 63 1017.6
20260830193028 76 295 0.0 2.0 0.00 0.00 0.00 62 1017.6
20260830192511 76 308 0.0 1.0 0.00 0.00 0.00 62 1017.6
20260830192013 76 316 0.0 1.0 0.00 0.00 0.00 65 1017.7
20260830191532 76 316 0.0 0.0 0.00 0.00 0.00 65 1017.7
20260830191006 77 316 0.0 0.0 0.00 0.00 0.00 65 1017.8
20260830190503 77 316 0.0 1.0 0.00 0.00 0.00 62 1017.9
20260830190016 77 316 0.0 2.0 0.00 0.00 0.00 61 1018.0
20260830185510 77 320 0.0 3.0 0.00 0.00 0.00 60 1018.1
20260830185007 78 351 0.0 3.0 0.00 0.00 0.00 59 1018.1
20260830184524 78 284 0.0 4.0 0.00 0.00 0.00 60 1018.1
20260830184011 78 286 2.0 4.0 0.00 0.00 0.00 59 1018.2
20260830183512 77 212 1.0 5.0 0.00 0.00 0.00 59 1018.2
20260830183027 77 289 2.0 5.0 0.00 0.00 0.00 60 1018.3
20260830182514 77 292 1.0 7.0 0.00 0.00 0.00 61 1018.4
20260830182013 77 284 3.0 7.0 0.00 0.00 0.00 60 1018.5
20260830181530 77 285 0.0 5.0 0.00 0.00 0.00 61 1018.5
20260830181016 77 335 2.0 5.0 0.00 0.00 0.00 60 1018.5
20260830180515 77 305 2.0 5.0 0.00 0.00 0.00 60 1018.5
20260830180031 77 293 1.0 4.0 0.00 0.00 0.00 60 1018.8
20260830175507 77 277 0.0 7.0 0.00 0.00 0.00 61 1018.8
20260830175007 77 290 3.0 7.0 0.00 0.00 0.00 60 1018.8
20260830174516 77 281 1.0 6.0 0.00 0.00 0.00 61 1018.8
20260830174010 77 319 0.0 6.0 0.00 0.00 0.00 60 1018.9
20260830173509 77 294 2.0 4.0 0.00 0.00 0.00 62 1019.0
20260830173022 77 282 0.0 3.0 0.00 0.00 0.00 63 1018.9
20260830172510 77 281 1.0 3.0 0.00 0.00 0.00 63 1019.1
20260830172012 77 275 0.0 3.0 0.00 0.00 0.00 64 1019.2
20260830171529 76 303 1.0 4.0 0.00 0.00 0.00 63 1019.3
20260830171014 77 296 1.0 6.0 0.00 0.00 0.00 62 1019.2
20260830170516 77 283 2.0 6.0 0.00 0.00 0.00 64 1019.2
20260830170031 76 293 1.0 7.0 0.00 0.00 0.00 64 1019.3
20260830165515 76 295 0.0 7.0 0.00 0.00 0.00 64 1019.4
20260830165020 76 302 2.0 7.0 0.00 0.00 0.00 63 1019.4
20260830164543 76 316 1.0 6.0 0.00 0.00 0.00 65 1019.4
20260830164006 75 354 0.0 7.0 0.00 0.00 0.00 66 1019.4
20260830163509 75 283 3.0 7.0 0.00 0.00 0.00 66 1019.4
20260830163023 75 294 3.0 5.0 0.00 0.00 0.00 68 1019.4
20260830162509 74 297 0.0 3.0 0.00 0.00 0.00 68 1019.3
20260830162012 74 274 0.0 2.0 0.00 0.00 0.00 68 1019.2
20260830161527 74 274 0.0 2.0 0.00 0.00 0.00 68 1019.3
20260830161011 74 285 0.0 2.0 0.00 0.00 0.00 68 1019.3
20260830160514 74 287 0.0 4.0 0.00 0.00 0.00 66 1019.2
20260830160030 74 290 0.0 4.0 0.00 0.00 0.00 67 1019.8
20260830155515 74 295 1.0 5.0 0.00 0.00 0.00 66 1019.9
20260830155017 74 284 1.0 5.0 0.00 0.00 0.00 66 1019.9
20260830154532 74 302 2.0 5.0 0.00 0.00 0.00 66 1020.0
20260830154015 75 297 1.0 5.0 0.00 0.00 0.00 66 1019.9
20260830153514 75 283 1.0 5.0 0.00 0.00 0.00 65 1019.8
20260830153044 75 297 2.0 5.0 0.00 0.00 0.00 65 1019.9
20260830152511 75 281 2.0 6.0 0.00 0.00 0.00 65 1019.9
20260830152009 75 287 2.0 6.0 0.00 0.00 0.00 64 1019.9
20260830151524 75 310 1.0 4.0 0.00 0.00 0.00 64 1019.9
20260830151010 75 349 1.0 3.0 0.00 0.00 0.00 67 1019.9
20260830150512 75 299 0.0 4.0 0.00 0.00 0.00 67 1019.8
20260830150027 74 279 0.0 4.0 0.00 0.00 0.00 67 1020.0
20260830145513 74 287 2.0 5.0 0.00 0.00 0.00 66 1020.0
20260830145001 75 294 1.0 6.0 0.00 0.00 0.00 64 1020.0
20260830144504 75 304 2.0 6.0 0.00 0.00 0.00 64 1020.0
20260830144002 75 287 1.0 4.0 0.00 0.00 0.00 64 1020.1
20260830143502 75 295 1.0 6.0 0.00 0.00 0.00 65 1020.0
20260830143004 74 290 3.0 6.0 0.00 0.00 0.00 64 1019.9
20260830142503 74 300 0.0 6.0 0.00 0.00 0.00 65 1019.8
20260830142002 73 288 3.0 7.0 0.00 0.00 0.00 65 1019.8
20260830141506 73 303 4.0 7.0 0.00 0.00 0.00 65 1019.8
20260830141002 73 290 2.0 8.0 0.00 0.00 0.00 65 1019.9
20260830140503 73 287 4.0 8.0 0.00 0.00 0.00 65 1019.9
20260830140004 73 299 3.0 6.0 0.00 0.00 0.00 65 1020.0
20260830135503 73 301 2.0 7.0 0.00 0.00 0.00 65 1020.0
20260830135003 72 296 3.0 7.0 0.00 0.00 0.00 66 1020.1
20260830134511 72 274 1.0 4.0 0.00 0.00 0.00 68 1020.1
20260830134003 71 276 1.0 4.0 0.00 0.00 0.00 69 1020.1
20260830133504 70 297 1.0 5.0 0.00 0.00 0.00 70 1020.0
20260830133004 70 300 0.0 5.0 0.00 0.00 0.00 73 1020.0
20260830132503 69 298 0.0 4.0 0.00 0.00 0.00 75 1020.1
20260830132003 68 283 1.0 4.0 0.00 0.00 0.00 72 1020.2
20260830131509 68 228 1.0 4.0 0.00 0.00 0.00 75 1020.1
20260830131003 67 190 1.0 3.0 0.00 0.00 0.00 77 1020.1
20260830130506 67 165 1.0 3.0 0.00 0.00 0.00 78 1020.2
20260830130005 66 126 1.0 3.0 0.00 0.00 0.00 79 1020.3
20260830125503 66 91 1.0 2.0 0.00 0.00 0.00 79 1020.3
20260830125004 65 130 0.0 2.0 0.00 0.00 0.00 79 1020.4
20260830124505 65 130 0.0 2.0 0.00 0.00 0.00 79 1020.5
20260830124003 64 165 0.0 2.0 0.00 0.00 0.00 79 1020.6
20260830123504 64 149 0.0 2.0 0.00 0.00 0.00 81 1020.5
20260830123006 63 82 0.0 2.0 0.00 0.00 0.00 82 1020.4
20260830122503 63 82 0.0 2.0 0.00 0.00 0.00 82 1020.5
20260830122003 62 82 0.0 3.0 0.00 0.00 0.00 83 1020.5
20260830121504 62 79 0.0 3.0 0.00 0.00 0.00 84 1020.6
20260830121002 61 137 0.0 2.0 0.00 0.00 0.00 87 1020.6
20260830120502 59 181 0.0 3.0 0.00 0.00 0.00 88 1020.6
20260830120006 58 185 0.0 3.0 0.00 0.00 0.00 90 1020.7
20260830115504 58 284 0.0 2.0 0.00 0.00 0.00 90 1020.7
20260830115002 57 284 0.0 0.0 0.00 0.00 0.00 91 1020.8
20260830114504 57 284 0.0 0.0 0.00 0.00 0.00 90 1020.7
20260830114006 57 284 0.0 0.0 0.00 0.00 0.00 91 1020.6
20260830113503 56 284 0.0 0.0 0.00 0.00 0.00 91 1020.6
20260830113006 56 284 0.0 0.0 0.00 0.00 0.00 91 1020.6
20260830112504 56 284 0.0 0.0 0.00 0.00 0.00 91 1020.6
20260830112006 56 284 0.0 0.0 0.00 0.00 0.00 92 1020.6
20260830111508 56 284 0.0 0.0 0.00 0.00 0.00 91 1020.7
20260830111003 56 284 0.0 0.0 0.00 0.00 0.00 91 1020.6
20260830110504 55 284 0.0 0.0 0.00 0.00 0.00 91 1020.6
20260830110008 55 284 0.0 0.0 0.00 0.00 0.00 91 1020.5
20260830105505 55 284 0.0 0.0 0.00 0.00 0.00 91 1020.5
20260830105003 55 284 0.0 0.0 0.00 0.00 0.00 91 1020.5
20260830104507 55 284 0.0 0.0 0.00 0.00 0.00 91 1020.3
20260830104003 55 284 0.0 0.0 0.00 0.00 0.00 91 1020.4